contact:dominique.lefevre@mio.osupytheas.fr, maurice.libes@osupytheas.fr, didier.mallarino@osupytheas.fr
Project:EMSO http://www.emso-fr.org/EMSO-France
Depth: 2436.0 m
Title:EMSO Ligure Ouest : Data MII capteur MICROCAT
DateTime_Computer,Latitude,Longitude,Temperature,Conductivity,Pressure,DateTime_Instrument
DateTime_Computer,Latitude,Longitude,degC,S m-1,dbar,DateTime_Instrument
2022-05-22T00:02:14Z,42.805,6.029,13.3003,4.60035,2470.73,2022-5-22T02:03:55Z
2022-05-22T00:05:17Z,42.805,6.029,13.3012,4.60036,2470.707,2022-5-22T02:06:59Z
2022-05-22T00:08:20Z,42.805,6.029,13.3023,4.60039,2470.693,2022-5-22T02:10:02Z
2022-05-22T00:11:23Z,42.805,6.029,13.3007,4.60041,2470.693,2022-5-22T02:13:05Z
2022-05-22T00:14:27Z,42.805,6.029,13.3004,4.60040,2470.67,2022-5-22T02:16:08Z
2022-05-22T00:17:30Z,42.805,6.029,13.3015,4.60060,2470.707,2022-5-22T02:19:11Z
2022-05-22T00:20:33Z,42.805,6.029,13.3004,4.60039,2470.693,2022-5-22T02:22:14Z
2022-05-22T00:23:36Z,42.805,6.029,13.3010,4.60038,2470.717,2022-5-22T02:25:17Z
2022-05-22T00:26:39Z,42.805,6.029,13.3011,4.60043,2470.693,2022-5-22T02:28:20Z
2022-05-22T00:29:42Z,42.805,6.029,13.3008,4.60045,2470.717,2022-5-22T02:31:24Z
2022-05-22T00:32:45Z,42.805,6.029,13.3024,4.60066,2470.693,2022-5-22T02:34:27Z
2022-05-22T00:35:48Z,42.805,6.029,13.3021,4.60064,2470.693,2022-5-22T02:37:30Z
2022-05-22T00:38:52Z,42.805,6.029,13.3019,4.60060,2470.717,2022-5-22T02:40:33Z
2022-05-22T00:41:55Z,42.805,6.029,13.3019,4.60062,2470.693,2022-5-22T02:43:36Z
2022-05-22T00:44:58Z,42.805,6.029,13.3026,4.60055,2470.73,2022-5-22T02:46:39Z
2022-05-22T00:48:01Z,42.805,6.029,13.3024,4.60062,2470.717,2022-5-22T02:49:42Z
2022-05-22T00:51:04Z,42.805,6.029,13.3024,4.60114,2470.73,2022-5-22T02:52:45Z
2022-05-22T00:54:07Z,42.805,6.029,13.3029,4.60061,2470.67,2022-5-22T02:55:49Z
2022-05-22T00:57:10Z,42.805,6.029,13.3023,4.60063,2470.693,2022-5-22T02:58:52Z
2022-05-22T01:00:13Z,42.805,6.029,13.3025,4.60051,2470.717,2022-5-22T03:01:55Z
2022-05-22T01:03:16Z,42.805,6.029,13.3016,4.60041,2470.656,2022-5-22T03:04:58Z
2022-05-22T01:06:20Z,42.805,6.029,13.3009,4.60036,2470.67,2022-5-22T03:08:01Z
2022-05-22T01:09:23Z,42.805,6.029,13.3013,4.60043,2470.717,2022-5-22T03:11:04Z
2022-05-22T01:12:26Z,42.805,6.029,13.3022,4.60040,2470.707,2022-5-22T03:14:07Z
2022-05-22T01:15:29Z,42.805,6.029,13.3015,4.60057,2470.693,2022-5-22T03:17:10Z
2022-05-22T01:18:32Z,42.805,6.029,13.3039,4.60046,2470.693,2022-5-22T03:20:14Z
2022-05-22T01:21:35Z,42.805,6.029,13.3029,4.60054,2470.717,2022-5-22T03:23:17Z
2022-05-22T01:24:38Z,42.805,6.029,13.3028,4.60041,2470.693,2022-5-22T03:26:20Z
2022-05-22T01:27:41Z,42.805,6.029,13.3019,4.60066,2470.707,2022-5-22T03:29:23Z
2022-05-22T01:30:45Z,42.805,6.029,13.3020,4.60079,2470.67,2022-5-22T03:32:26Z
2022-05-22T01:33:48Z,42.805,6.029,13.3019,4.60060,2470.707,2022-5-22T03:35:29Z
2022-05-22T01:36:51Z,42.805,6.029,13.3032,4.60058,2470.707,2022-5-22T03:38:32Z
2022-05-22T01:39:54Z,42.805,6.029,13.3035,4.60070,2470.684,2022-5-22T03:41:35Z
2022-05-22T01:42:57Z,42.805,6.029,13.3029,4.60081,2470.707,2022-5-22T03:44:38Z
2022-05-22T01:46:00Z,42.805,6.029,13.3045,4.60064,2470.693,2022-5-22T03:47:42Z
2022-05-22T01:49:03Z,42.805,6.029,13.3005,4.60041,2470.707,2022-5-22T03:50:45Z
2022-05-22T01:52:06Z,42.805,6.029,13.3001,4.60040,2470.693,2022-5-22T03:53:48Z
2022-05-22T01:55:10Z,42.805,6.029,13.3002,4.60038,2470.693,2022-5-22T03:56:51Z
2022-05-22T01:58:13Z,42.805,6.029,13.3005,4.60037,2470.67,2022-5-22T03:59:54Z
2022-05-22T02:01:16Z,42.805,6.029,13.3007,4.60036,2470.684,2022-5-22T04:02:57Z
2022-05-22T02:04:19Z,42.805,6.029,13.3005,4.60036,2470.67,2022-5-22T04:06:00Z
2022-05-22T02:07:22Z,42.805,6.029,13.3006,4.60038,2470.684,2022-5-22T04:09:03Z
2022-05-22T02:10:25Z,42.805,6.029,13.3009,4.60037,2470.67,2022-5-22T04:12:07Z
2022-05-22T02:13:28Z,42.805,6.029,13.3002,4.60038,2470.717,2022-5-22T04:15:10Z
2022-05-22T02:16:31Z,42.805,6.029,13.3006,4.60039,2470.693,2022-5-22T04:18:13Z
2022-05-22T02:19:35Z,42.805,6.029,13.3006,4.60034,2470.693,2022-5-22T04:21:16Z
2022-05-22T02:22:38Z,42.805,6.029,13.3004,4.60038,2470.67,2022-5-22T04:24:19Z
2022-05-22T02:25:41Z,42.805,6.029,13.3002,4.60034,2470.693,2022-5-22T04:27:22Z
2022-05-22T02:28:44Z,42.805,6.029,13.3006,4.60034,2470.646,2022-5-22T04:30:25Z
2022-05-22T02:31:47Z,42.805,6.029,13.3006,4.60036,2470.684,2022-5-22T04:33:28Z
2022-05-22T02:34:50Z,42.805,6.029,13.3026,4.60058,2470.693,2022-5-22T04:36:32Z
2022-05-22T02:37:53Z,42.805,6.029,13.3022,4.60057,2470.684,2022-5-22T04:39:35Z
2022-05-22T02:40:56Z,42.805,6.029,13.3018,4.60057,2470.693,2022-5-22T04:42:38Z
2022-05-22T02:43:59Z,42.805,6.029,13.3021,4.60047,2470.67,2022-5-22T04:45:41Z
2022-05-22T02:47:03Z,42.805,6.029,13.3009,4.60037,2470.684,2022-5-22T04:48:44Z
2022-05-22T02:50:06Z,42.805,6.029,13.3004,4.60037,2470.684,2022-5-22T04:51:47Z
2022-05-22T02:53:09Z,42.805,6.029,13.3021,4.60079,2470.693,2022-5-22T04:54:50Z
2022-05-22T02:56:12Z,42.805,6.029,13.3028,4.60052,2470.67,2022-5-22T04:57:53Z
2022-05-22T02:59:15Z,42.805,6.029,13.3016,4.60040,2470.684,2022-5-22T05:00:57Z
2022-05-22T03:02:18Z,42.805,6.029,13.3004,4.60038,2470.67,2022-5-22T05:04:00Z
2022-05-22T03:05:21Z,42.805,6.029,13.3006,4.60035,2470.693,2022-5-22T05:07:03Z
2022-05-22T03:08:24Z,42.805,6.029,13.3004,4.60036,2470.646,2022-5-22T05:10:06Z
2022-05-22T03:11:28Z,42.805,6.029,13.3006,4.60046,2470.646,2022-5-22T05:13:09Z
2022-05-22T03:14:31Z,42.805,6.029,13.3002,4.60041,2470.624,2022-5-22T05:16:12Z
2022-05-22T03:17:34Z,42.805,6.029,13.3001,4.60038,2470.67,2022-5-22T05:19:15Z
2022-05-22T03:20:37Z,42.805,6.029,13.3011,4.60034,2470.661,2022-5-22T05:22:18Z
2022-05-22T03:23:40Z,42.805,6.029,13.3000,4.60036,2470.646,2022-5-22T05:25:21Z
2022-05-22T03:26:43Z,42.805,6.029,13.3011,4.60053,2470.646,2022-5-22T05:28:25Z
2022-05-22T03:29:46Z,42.805,6.029,13.3032,4.60045,2470.637,2022-5-22T05:31:28Z
2022-05-22T03:32:49Z,42.805,6.029,13.3001,4.60036,2470.646,2022-5-22T05:34:31Z
2022-05-22T03:35:53Z,42.805,6.029,13.3015,4.60039,2470.637,2022-5-22T05:37:34Z
2022-05-22T03:38:56Z,42.805,6.029,13.3009,4.60037,2470.6,2022-5-22T05:40:37Z
2022-05-22T03:41:59Z,42.805,6.029,13.3005,4.60036,2470.646,2022-5-22T05:43:40Z
2022-05-22T03:45:02Z,42.805,6.029,13.3006,4.60042,2470.624,2022-5-22T05:46:43Z
2022-05-22T03:48:05Z,42.805,6.029,13.3009,4.60060,2470.646,2022-5-22T05:49:46Z
2022-05-22T03:51:08Z,42.805,6.029,13.3032,4.60060,2470.624,2022-5-22T05:52:50Z
2022-05-22T03:54:11Z,42.805,6.029,13.3026,4.60052,2470.624,2022-5-22T05:55:53Z
2022-05-22T03:57:14Z,42.805,6.029,13.3011,4.60034,2470.624,2022-5-22T05:58:56Z
2022-05-22T04:00:18Z,42.805,6.029,13.3007,4.60036,2470.624,2022-5-22T06:01:59Z
2022-05-22T04:03:21Z,42.805,6.029,13.3004,4.60037,2470.6,2022-5-22T06:05:02Z
2022-05-22T04:06:24Z,42.805,6.029,13.3014,4.60035,2470.624,2022-5-22T06:08:05Z
2022-05-22T04:09:27Z,42.805,6.029,13.3009,4.60038,2470.624,2022-5-22T06:11:08Z
2022-05-22T04:12:30Z,42.805,6.029,13.3022,4.60044,2470.637,2022-5-22T06:14:11Z
2022-05-22T04:15:33Z,42.805,6.029,13.3004,4.60039,2470.6,2022-5-22T06:17:15Z
2022-05-22T04:18:36Z,42.805,6.029,13.3009,4.60036,2470.6,2022-5-22T06:20:18Z
2022-05-22T04:21:39Z,42.805,6.029,13.3005,4.60035,2470.624,2022-5-22T06:23:21Z
2022-05-22T04:24:42Z,42.805,6.029,13.3004,4.60038,2470.6,2022-5-22T06:26:24Z
2022-05-22T04:27:46Z,42.805,6.029,13.3009,4.60037,2470.6,2022-5-22T06:29:27Z
2022-05-22T04:30:49Z,42.805,6.029,13.3004,4.60034,2470.624,2022-5-22T06:32:30Z
2022-05-22T04:33:52Z,42.805,6.029,13.3004,4.60034,2470.6,2022-5-22T06:35:33Z
2022-05-22T04:36:55Z,42.805,6.029,13.3004,4.60035,2470.614,2022-5-22T06:38:36Z
2022-05-22T04:39:58Z,42.805,6.029,13.3001,4.60034,2470.624,2022-5-22T06:41:40Z
2022-05-22T04:43:01Z,42.805,6.029,13.3004,4.60033,2470.6,2022-5-22T06:44:43Z
2022-05-22T04:46:04Z,42.805,6.029,13.3002,4.60036,2470.591,2022-5-22T06:47:46Z
2022-05-22T04:49:07Z,42.805,6.029,13.3000,4.60034,2470.637,2022-5-22T06:50:49Z
2022-05-22T04:52:11Z,42.805,6.029,13.3002,4.60034,2470.553,2022-5-22T06:53:52Z
2022-05-22T04:55:14Z,42.805,6.029,13.2999,4.60033,2470.614,2022-5-22T06:56:55Z
2022-05-22T04:58:17Z,42.805,6.029,13.3005,4.60035,2470.6,2022-5-22T06:59:58Z
2022-05-22T05:01:20Z,42.805,6.029,13.3015,4.60035,2470.6,2022-5-22T07:03:01Z
2022-05-22T05:04:23Z,42.805,6.029,13.3007,4.60039,2470.591,2022-5-22T07:06:05Z
2022-05-22T05:07:26Z,42.805,6.029,13.3004,4.60035,2470.6,2022-5-22T07:09:08Z
2022-05-22T05:10:29Z,42.805,6.029,13.3003,4.60034,2470.614,2022-5-22T07:12:11Z
2022-05-22T05:13:32Z,42.805,6.029,13.3004,4.60033,2470.577,2022-5-22T07:15:14Z
2022-05-22T05:16:35Z,42.805,6.029,13.3001,4.60035,2470.577,2022-5-22T07:18:17Z
2022-05-22T05:19:39Z,42.805,6.029,13.3001,4.60034,2470.553,2022-5-22T07:21:20Z
2022-05-22T05:22:42Z,42.805,6.029,13.3003,4.60036,2470.567,2022-5-22T07:24:23Z
2022-05-22T05:25:45Z,42.805,6.029,13.3004,4.60033,2470.614,2022-5-22T07:27:26Z
2022-05-22T05:28:48Z,42.805,6.029,13.3004,4.60034,2470.591,2022-5-22T07:30:29Z
2022-05-22T05:31:51Z,42.805,6.029,13.3004,4.60033,2470.6,2022-5-22T07:33:33Z
2022-05-22T05:34:54Z,42.805,6.029,13.3000,4.60036,2470.577,2022-5-22T07:36:36Z
2022-05-22T05:37:57Z,42.805,6.029,13.3004,4.60034,2470.577,2022-5-22T07:39:39Z
2022-05-22T05:41:00Z,42.805,6.029,13.3006,4.60035,2470.591,2022-5-22T07:42:42Z
2022-05-22T05:44:04Z,42.805,6.029,13.3001,4.60033,2470.577,2022-5-22T07:45:45Z
2022-05-22T05:47:07Z,42.805,6.029,13.3002,4.60035,2470.553,2022-5-22T07:48:48Z
2022-05-22T05:50:10Z,42.805,6.029,13.3004,4.60035,2470.563,2022-5-22T07:51:51Z
2022-05-22T05:53:13Z,42.805,6.029,13.3003,4.60035,2470.539,2022-5-22T07:54:54Z
2022-05-22T05:56:16Z,42.805,6.029,13.3001,4.60035,2470.553,2022-5-22T07:57:58Z
2022-05-22T05:59:19Z,42.805,6.029,13.3000,4.60035,2470.53,2022-5-22T08:01:01Z
2022-05-22T06:02:22Z,42.805,6.029,13.3005,4.60036,2470.567,2022-5-22T08:04:04Z
2022-05-22T06:05:25Z,42.805,6.029,13.3004,4.60033,2470.591,2022-5-22T08:07:07Z
2022-05-22T06:08:29Z,42.805,6.029,13.3003,4.60036,2470.553,2022-5-22T08:10:10Z
2022-05-22T06:11:32Z,42.805,6.029,13.3003,4.60035,2470.53,2022-5-22T08:13:13Z
2022-05-22T06:14:35Z,42.805,6.029,13.3002,4.60035,2470.544,2022-5-22T08:16:16Z
2022-05-22T06:17:38Z,42.805,6.029,13.3004,4.60033,2470.553,2022-5-22T08:19:19Z
2022-05-22T06:20:41Z,42.805,6.029,13.3001,4.60035,2470.577,2022-5-22T08:22:23Z
2022-05-22T06:23:44Z,42.805,6.029,13.3000,4.60036,2470.567,2022-5-22T08:25:26Z
2022-05-22T06:26:47Z,42.805,6.029,13.2996,4.60033,2470.553,2022-5-22T08:28:29Z
2022-05-22T06:29:50Z,42.805,6.029,13.3006,4.60033,2470.53,2022-5-22T08:31:32Z
2022-05-22T06:32:54Z,42.805,6.029,13.3006,4.60033,2470.567,2022-5-22T08:34:35Z
2022-05-22T06:35:57Z,42.805,6.029,13.2998,4.60033,2470.567,2022-5-22T08:37:38Z
2022-05-22T06:39:00Z,42.805,6.029,13.3007,4.60033,2470.553,2022-5-22T08:40:41Z
2022-05-22T06:42:03Z,42.805,6.029,13.3003,4.60034,2470.553,2022-5-22T08:43:44Z
2022-05-22T06:45:06Z,42.805,6.029,13.3005,4.60036,2470.591,2022-5-22T08:46:47Z
2022-05-22T06:48:09Z,42.805,6.029,13.3002,4.60034,2470.507,2022-5-22T08:49:51Z
2022-05-22T06:51:12Z,42.805,6.029,13.3004,4.60036,2470.553,2022-5-22T08:52:54Z
2022-05-22T06:54:15Z,42.805,6.029,13.3000,4.60034,2470.53,2022-5-22T08:55:57Z
2022-05-22T06:57:18Z,42.805,6.029,13.3003,4.60033,2470.507,2022-5-22T08:59:00Z
2022-05-22T07:00:22Z,42.805,6.029,13.3000,4.60034,2470.507,2022-5-22T09:02:03Z
2022-05-22T07:03:25Z,42.805,6.029,13.3004,4.60035,2470.53,2022-5-22T09:05:06Z
2022-05-22T07:06:28Z,42.805,6.029,13.3004,4.60035,2470.53,2022-5-22T09:08:09Z
2022-05-22T07:09:31Z,42.805,6.029,13.3000,4.60037,2470.544,2022-5-22T09:11:12Z
2022-05-22T07:12:34Z,42.805,6.029,13.3004,4.60033,2470.483,2022-5-22T09:14:16Z
2022-05-22T07:15:37Z,42.805,6.029,13.3000,4.60033,2470.567,2022-5-22T09:17:19Z
2022-05-22T07:18:40Z,42.805,6.029,13.3002,4.60033,2470.553,2022-5-22T09:20:22Z
2022-05-22T07:21:43Z,42.805,6.029,13.3001,4.60036,2470.53,2022-5-22T09:23:25Z
2022-05-22T07:24:47Z,42.805,6.029,13.3003,4.60033,2470.53,2022-5-22T09:26:28Z
2022-05-22T07:27:50Z,42.805,6.029,13.3003,4.60033,2470.497,2022-5-22T09:29:31Z
2022-05-22T07:30:53Z,42.805,6.029,13.3002,4.60033,2470.52,2022-5-22T09:32:34Z
2022-05-22T07:33:56Z,42.805,6.029,13.3003,4.60035,2470.53,2022-5-22T09:35:37Z
2022-05-22T07:36:59Z,42.805,6.029,13.3001,4.60034,2470.53,2022-5-22T09:38:41Z
2022-05-22T07:40:02Z,42.805,6.029,13.3002,4.60033,2470.507,2022-5-22T09:41:44Z
2022-05-22T07:43:05Z,42.805,6.029,13.3004,4.60033,2470.507,2022-5-22T09:44:47Z
2022-05-22T07:46:08Z,42.805,6.029,13.3000,4.60032,2470.507,2022-5-22T09:47:50Z
2022-05-22T07:49:12Z,42.805,6.029,13.3000,4.60033,2470.544,2022-5-22T09:50:53Z
2022-05-22T07:52:15Z,42.805,6.029,13.3003,4.60036,2470.507,2022-5-22T09:53:56Z
2022-05-22T07:55:18Z,42.805,6.029,13.3002,4.60035,2470.53,2022-5-22T09:56:59Z
2022-05-22T07:58:21Z,42.805,6.029,13.3004,4.60033,2470.497,2022-5-22T10:00:02Z
2022-05-22T08:01:24Z,42.805,6.029,13.2999,4.60035,2470.553,2022-5-22T10:03:05Z
2022-05-22T08:04:27Z,42.805,6.029,13.3000,4.60033,2470.507,2022-5-22T10:06:09Z
2022-05-22T08:07:30Z,42.805,6.029,13.3002,4.60033,2470.52,2022-5-22T10:09:12Z
2022-05-22T08:10:33Z,42.805,6.029,13.3006,4.60033,2470.53,2022-5-22T10:12:15Z
2022-05-22T08:13:37Z,42.805,6.029,13.3002,4.60036,2470.507,2022-5-22T10:15:18Z
2022-05-22T08:16:40Z,42.805,6.029,13.3001,4.60033,2470.53,2022-5-22T10:18:21Z
2022-05-22T08:19:43Z,42.805,6.029,13.3000,4.60032,2470.53,2022-5-22T10:21:24Z
2022-05-22T08:22:46Z,42.805,6.029,13.3003,4.60033,2470.507,2022-5-22T10:24:27Z
2022-05-22T08:25:49Z,42.805,6.029,13.3004,4.60032,2470.544,2022-5-22T10:27:31Z
2022-05-22T08:28:52Z,42.805,6.029,13.3008,4.60033,2470.544,2022-5-22T10:30:34Z
2022-05-22T08:31:55Z,42.805,6.029,13.2999,4.60031,2470.507,2022-5-22T10:33:37Z
2022-05-22T08:34:58Z,42.805,6.029,13.2997,4.60033,2470.53,2022-5-22T10:36:40Z
2022-05-22T08:38:02Z,42.805,6.029,13.3002,4.60033,2470.507,2022-5-22T10:39:43Z
2022-05-22T08:41:05Z,42.805,6.029,13.3004,4.60031,2470.507,2022-5-22T10:42:46Z
2022-05-22T08:44:08Z,42.805,6.029,13.3002,4.60032,2470.483,2022-5-22T10:45:49Z
2022-05-22T08:47:11Z,42.805,6.029,13.3006,4.60035,2470.52,2022-5-22T10:48:52Z
2022-05-22T08:50:14Z,42.805,6.029,13.3000,4.60033,2470.53,2022-5-22T10:51:56Z
2022-05-22T08:53:17Z,42.805,6.029,13.3002,4.60032,2470.52,2022-5-22T10:54:59Z
2022-05-22T08:56:20Z,42.805,6.029,13.3000,4.60032,2470.507,2022-5-22T10:58:02Z
2022-05-22T08:59:23Z,42.805,6.029,13.3000,4.60033,2470.53,2022-5-22T11:01:05Z
2022-05-22T09:02:27Z,42.805,6.029,13.2998,4.60032,2470.52,2022-5-22T11:04:08Z
2022-05-22T09:05:30Z,42.805,6.029,13.3004,4.60031,2470.507,2022-5-22T11:07:11Z
2022-05-22T09:08:33Z,42.805,6.029,13.3002,4.60035,2470.53,2022-5-22T11:10:14Z
2022-05-22T09:11:36Z,42.805,6.029,13.3000,4.60032,2470.544,2022-5-22T11:13:17Z
2022-05-22T09:14:39Z,42.805,6.029,13.3000,4.60031,2470.544,2022-5-22T11:16:21Z
2022-05-22T09:17:42Z,42.805,6.029,13.2999,4.60032,2470.507,2022-5-22T11:19:24Z
2022-05-22T09:20:45Z,42.805,6.029,13.3005,4.60035,2470.507,2022-5-22T11:22:27Z
2022-05-22T09:23:48Z,42.805,6.029,13.3002,4.60033,2470.52,2022-5-22T11:25:30Z
2022-05-22T09:26:52Z,42.805,6.029,13.3003,4.60037,2470.567,2022-5-22T11:28:33Z
2022-05-22T09:29:55Z,42.805,6.029,13.2999,4.60033,2470.544,2022-5-22T11:31:36Z
2022-05-22T09:32:58Z,42.805,6.029,13.3001,4.60033,2470.52,2022-5-22T11:34:39Z
2022-05-22T09:36:01Z,42.805,6.029,13.3003,4.60032,2470.553,2022-5-22T11:37:42Z
2022-05-22T09:39:04Z,42.805,6.029,13.3002,4.60033,2470.507,2022-5-22T11:40:46Z
2022-05-22T09:42:07Z,42.805,6.029,13.3004,4.60033,2470.53,2022-5-22T11:43:49Z
2022-05-22T09:45:10Z,42.805,6.029,13.3001,4.60037,2470.53,2022-5-22T11:46:52Z
2022-05-22T09:48:13Z,42.805,6.029,13.3004,4.60031,2470.507,2022-5-22T11:49:55Z
2022-05-22T09:51:17Z,42.805,6.029,13.3004,4.60033,2470.567,2022-5-22T11:52:58Z
2022-05-22T09:54:20Z,42.805,6.029,13.2998,4.60032,2470.567,2022-5-22T11:56:01Z
2022-05-22T09:57:23Z,42.805,6.029,13.3002,4.60032,2470.516,2022-5-22T11:59:04Z
2022-05-22T10:00:26Z,42.805,6.029,13.2999,4.60032,2470.544,2022-5-22T12:02:07Z
2022-05-22T10:03:29Z,42.805,6.029,13.3001,4.60032,2470.53,2022-5-22T12:05:11Z
2022-05-22T10:06:32Z,42.805,6.029,13.2999,4.60033,2470.53,2022-5-22T12:08:14Z
2022-05-22T10:09:35Z,42.805,6.029,13.3000,4.60033,2470.553,2022-5-22T12:11:17Z
2022-05-22T10:12:38Z,42.805,6.029,13.3000,4.60035,2470.553,2022-5-22T12:14:20Z
2022-05-22T10:15:42Z,42.805,6.029,13.3001,4.60033,2470.53,2022-5-22T12:17:23Z
2022-05-22T10:18:45Z,42.805,6.029,13.3004,4.60031,2470.553,2022-5-22T12:20:26Z
2022-05-22T10:21:48Z,42.805,6.029,13.3000,4.60031,2470.53,2022-5-22T12:23:29Z
2022-05-22T10:24:51Z,42.805,6.029,13.3000,4.60032,2470.53,2022-5-22T12:26:32Z
2022-05-22T10:27:54Z,42.805,6.029,13.3002,4.60032,2470.577,2022-5-22T12:29:36Z
2022-05-22T10:30:57Z,42.805,6.029,13.3002,4.60031,2470.553,2022-5-22T12:32:39Z
2022-05-22T10:34:00Z,42.805,6.029,13.2998,4.60031,2470.553,2022-5-22T12:35:42Z
2022-05-22T10:37:03Z,42.805,6.029,13.2998,4.60034,2470.53,2022-5-22T12:38:45Z
2022-05-22T10:40:07Z,42.805,6.029,13.3002,4.60034,2470.553,2022-5-22T12:41:48Z
2022-05-22T10:43:10Z,42.805,6.029,13.3003,4.60033,2470.563,2022-5-22T12:44:51Z
2022-05-22T10:46:13Z,42.805,6.029,13.3001,4.60033,2470.53,2022-5-22T12:47:54Z
2022-05-22T10:49:16Z,42.805,6.029,13.3001,4.60031,2470.567,2022-5-22T12:50:57Z
2022-05-22T10:52:19Z,42.805,6.029,13.3002,4.60032,2470.591,2022-5-22T12:54:01Z
2022-05-22T10:55:22Z,42.805,6.029,13.2998,4.60031,2470.577,2022-5-22T12:57:04Z
2022-05-22T10:58:25Z,42.805,6.029,13.3000,4.60031,2470.52,2022-5-22T13:00:07Z
2022-05-22T11:01:28Z,42.805,6.029,13.3001,4.60032,2470.553,2022-5-22T13:03:10Z
2022-05-22T11:04:32Z,42.805,6.029,13.3003,4.60031,2470.577,2022-5-22T13:06:13Z
2022-05-22T11:07:35Z,42.805,6.029,13.2999,4.60033,2470.567,2022-5-22T13:09:16Z
2022-05-22T11:10:38Z,42.805,6.029,13.3002,4.60037,2470.577,2022-5-22T13:12:19Z
2022-05-22T11:13:41Z,42.805,6.029,13.2996,4.60033,2470.553,2022-5-22T13:15:22Z
2022-05-22T11:16:44Z,42.805,6.029,13.3000,4.60032,2470.53,2022-5-22T13:18:26Z
2022-05-22T11:19:47Z,42.805,6.029,13.3002,4.60032,2470.553,2022-5-22T13:21:29Z
2022-05-22T11:22:50Z,42.805,6.029,13.3004,4.60032,2470.553,2022-5-22T13:24:32Z
2022-05-22T11:25:53Z,42.805,6.029,13.3004,4.60033,2470.553,2022-5-22T13:27:35Z
2022-05-22T11:28:57Z,42.805,6.029,13.3002,4.60032,2470.53,2022-5-22T13:30:38Z
2022-05-22T11:32:00Z,42.805,6.029,13.3003,4.60033,2470.553,2022-5-22T13:33:41Z
2022-05-22T11:35:03Z,42.805,6.029,13.3000,4.60033,2470.591,2022-5-22T13:36:44Z
2022-05-22T11:38:06Z,42.805,6.029,13.3001,4.60033,2470.544,2022-5-22T13:39:47Z
2022-05-22T11:41:09Z,42.805,6.029,13.3002,4.60036,2470.53,2022-5-22T13:42:51Z
2022-05-22T11:44:12Z,42.805,6.029,13.3005,4.60033,2470.577,2022-5-22T13:45:54Z
2022-05-22T11:47:15Z,42.805,6.029,13.3000,4.60034,2470.53,2022-5-22T13:48:57Z
2022-05-22T11:50:18Z,42.805,6.029,13.3000,4.60033,2470.567,2022-5-22T13:52:00Z
2022-05-22T11:53:22Z,42.805,6.029,13.2998,4.60033,2470.577,2022-5-22T13:55:03Z
2022-05-22T11:56:25Z,42.805,6.029,13.3000,4.60033,2470.567,2022-5-22T13:58:06Z
2022-05-22T11:59:28Z,42.805,6.029,13.3001,4.60033,2470.591,2022-5-22T14:01:09Z
2022-05-22T12:02:31Z,42.805,6.029,13.3002,4.60032,2470.544,2022-5-22T14:04:12Z
2022-05-22T12:05:34Z,42.805,6.029,13.3001,4.60035,2470.553,2022-5-22T14:07:16Z
2022-05-22T12:08:37Z,42.805,6.029,13.3002,4.60035,2470.53,2022-5-22T14:10:19Z
2022-05-22T12:11:40Z,42.805,6.029,13.3005,4.60039,2470.52,2022-5-22T14:13:22Z
2022-05-22T12:14:43Z,42.805,6.029,13.3002,4.60033,2470.567,2022-5-22T14:16:25Z
2022-05-22T12:17:47Z,42.805,6.029,13.3002,4.60034,2470.577,2022-5-22T14:19:28Z
2022-05-22T12:20:50Z,42.805,6.029,13.3005,4.60033,2470.544,2022-5-22T14:22:31Z
2022-05-22T12:23:53Z,42.805,6.029,13.3006,4.60035,2470.553,2022-5-22T14:25:34Z
2022-05-22T12:26:56Z,42.805,6.029,13.3001,4.60034,2470.53,2022-5-22T14:28:37Z
2022-05-22T12:29:59Z,42.805,6.029,13.3004,4.60035,2470.53,2022-5-22T14:31:41Z
2022-05-22T12:33:02Z,42.805,6.029,13.3004,4.60033,2470.567,2022-5-22T14:34:44Z
2022-05-22T12:36:05Z,42.805,6.029,13.3002,4.60040,2470.53,2022-5-22T14:37:47Z
2022-05-22T12:39:08Z,42.805,6.029,13.3003,4.60033,2470.544,2022-5-22T14:40:50Z
2022-05-22T12:42:12Z,42.805,6.029,13.3000,4.60034,2470.53,2022-5-22T14:43:53Z
2022-05-22T12:45:15Z,42.805,6.029,13.3003,4.60033,2470.553,2022-5-22T14:46:56Z
2022-05-22T12:48:18Z,42.805,6.029,13.3004,4.60033,2470.53,2022-5-22T14:49:59Z
2022-05-22T12:51:21Z,42.805,6.029,13.3006,4.60038,2470.516,2022-5-22T14:53:02Z
2022-05-22T12:54:24Z,42.805,6.029,13.3003,4.60036,2470.553,2022-5-22T14:56:06Z
2022-05-22T12:57:27Z,42.805,6.029,13.3004,4.60036,2470.567,2022-5-22T14:59:09Z
2022-05-22T13:00:30Z,42.805,6.029,13.3004,4.60035,2470.544,2022-5-22T15:02:12Z
2022-05-22T13:03:33Z,42.805,6.029,13.3001,4.60036,2470.567,2022-5-22T15:05:15Z
2022-05-22T13:06:37Z,42.805,6.029,13.3005,4.60033,2470.544,2022-5-22T15:08:18Z
2022-05-22T13:09:40Z,42.805,6.029,13.3004,4.60035,2470.553,2022-5-22T15:11:21Z
2022-05-22T13:12:43Z,42.805,6.029,13.3001,4.60038,2470.553,2022-5-22T15:14:24Z
2022-05-22T13:15:46Z,42.805,6.029,13.3003,4.60035,2470.53,2022-5-22T15:17:27Z
2022-05-22T13:18:49Z,42.805,6.029,13.3003,4.60035,2470.53,2022-5-22T15:20:31Z
2022-05-22T13:21:52Z,42.805,6.029,13.3005,4.60037,2470.553,2022-5-22T15:23:34Z
2022-05-22T13:24:55Z,42.805,6.029,13.3005,4.60041,2470.553,2022-5-22T15:26:37Z
2022-05-22T13:27:58Z,42.805,6.029,13.3000,4.60035,2470.53,2022-5-22T15:29:40Z
2022-05-22T13:31:02Z,42.805,6.029,13.3003,4.60038,2470.53,2022-5-22T15:32:43Z
2022-05-22T13:34:05Z,42.805,6.029,13.3004,4.60036,2470.577,2022-5-22T15:35:46Z
2022-05-22T13:37:08Z,42.805,6.029,13.3004,4.60034,2470.507,2022-5-22T15:38:49Z
2022-05-22T13:40:11Z,42.805,6.029,13.3004,4.60037,2470.567,2022-5-22T15:41:52Z
2022-05-22T13:43:14Z,42.805,6.029,13.3006,4.60036,2470.53,2022-5-22T15:44:56Z
2022-05-22T13:46:17Z,42.805,6.029,13.3006,4.60034,2470.52,2022-5-22T15:47:59Z
2022-05-22T13:49:20Z,42.805,6.029,13.3005,4.60038,2470.553,2022-5-22T15:51:02Z
2022-05-22T13:52:23Z,42.805,6.029,13.3005,4.60037,2470.544,2022-5-22T15:54:05Z
2022-05-22T13:55:27Z,42.805,6.029,13.3004,4.60034,2470.567,2022-5-22T15:57:08Z
2022-05-22T13:58:30Z,42.805,6.029,13.3004,4.60039,2470.53,2022-5-22T16:00:11Z
2022-05-22T14:01:33Z,42.805,6.029,13.3003,4.60035,2470.507,2022-5-22T16:03:14Z
2022-05-22T14:04:36Z,42.805,6.029,13.3006,4.60035,2470.553,2022-5-22T16:06:18Z
2022-05-22T14:07:39Z,42.805,6.029,13.3004,4.60036,2470.553,2022-5-22T16:09:21Z
2022-05-22T14:10:42Z,42.805,6.029,13.3003,4.60041,2470.53,2022-5-22T16:12:24Z
2022-05-22T14:13:45Z,42.805,6.029,13.3005,4.60037,2470.544,2022-5-22T16:15:27Z
2022-05-22T14:16:49Z,42.805,6.029,13.3003,4.60036,2470.567,2022-5-22T16:18:30Z
2022-05-22T14:19:52Z,42.805,6.029,13.3004,4.60037,2470.507,2022-5-22T16:21:33Z
2022-05-22T14:22:55Z,42.805,6.029,13.3002,4.60036,2470.53,2022-5-22T16:24:36Z
2022-05-22T14:25:58Z,42.805,6.029,13.3005,4.60036,2470.53,2022-5-22T16:27:39Z
2022-05-22T14:29:01Z,42.805,6.029,13.3001,4.60037,2470.53,2022-5-22T16:30:43Z
2022-05-22T14:32:04Z,42.805,6.029,13.3008,4.60037,2470.544,2022-5-22T16:33:46Z
2022-05-22T14:35:07Z,42.805,6.029,13.3004,4.60038,2470.544,2022-5-22T16:36:49Z
2022-05-22T14:38:10Z,42.805,6.029,13.3004,4.60036,2470.553,2022-5-22T16:39:52Z
2022-05-22T14:41:14Z,42.805,6.029,13.3005,4.60038,2470.544,2022-5-22T16:42:55Z
2022-05-22T14:44:17Z,42.805,6.029,13.3006,4.60037,2470.507,2022-5-22T16:45:58Z
2022-05-22T14:47:20Z,42.805,6.029,13.3003,4.60034,2470.493,2022-5-22T16:49:01Z
2022-05-22T14:50:23Z,42.805,6.029,13.3005,4.60035,2470.53,2022-5-22T16:52:04Z
2022-05-22T14:53:26Z,42.805,6.029,13.3006,4.60035,2470.52,2022-5-22T16:55:08Z
2022-05-22T14:56:29Z,42.805,6.029,13.3004,4.60035,2470.52,2022-5-22T16:58:11Z
2022-05-22T14:59:32Z,42.805,6.029,13.3004,4.60035,2470.544,2022-5-22T17:01:14Z
2022-05-22T15:02:35Z,42.805,6.029,13.3004,4.60037,2470.507,2022-5-22T17:04:17Z
2022-05-22T15:05:39Z,42.805,6.029,13.3000,4.60037,2470.53,2022-5-22T17:07:20Z
2022-05-22T15:08:42Z,42.805,6.029,13.3004,4.60038,2470.507,2022-5-22T17:10:23Z
2022-05-22T15:11:45Z,42.805,6.029,13.3003,4.60035,2470.53,2022-5-22T17:13:26Z
2022-05-22T15:14:48Z,42.805,6.029,13.3001,4.60034,2470.53,2022-5-22T17:16:29Z